Location: *
(51.1248°S, 108.4023°W)
Time: 09:23:45
(UTC+00:00)

Envisat - Pass Details

Date: 29 September 2021
Orbit: 764 x 766 km, 98.2° (Epoch: 27 October)

Event Time Altitude Azimuth Distance (km) Brightness Sun altitude
Rises 11:55:12 0° 357° (N) 3,231 6.1 -8.6°
Reaches altitude 10° 11:57:35 10° 351° (N) 2,313 5.3 -8.2°
Maximum altitude 12:02:28 45° 278° (W) 1,052 3.3 -7.5°
Drops below altitude 10° 12:07:26 10° 205° (SSW) 2,343 5.4 -6.7°
Sets 12:09:52 0° 198° (SSW) 3,277 6.2 -6.4°
